sat.trackr.live / text

‹ back to catalog

STARLINK-5573

NORAD 55750 · 2023-028K

PAYLOAD ACTIVE UNKNOWN

§ Identity

Operator
Country
US
Launch date
2023-03-03
Launch site
AFWTR
Launch vehicle
Mass (kg)
RCS (m²)

Purposes: comms

External: N2YO · Heavens-Above · Gunter

§ Orbital elements

Epoch: 2026-09-20T22:00:03.000096Z

Period
95.82 min
Inclination
70.0010°
Eccentricity
0.0002401
Mean motion
15.02880142 rev/d
Perigee alt
556.4 km
Apogee alt
559.7 km
Semi-major
6,936.2 km
B*
4.2467e-3
RAAN
112.2190°
Arg perigee
267.2510°
Mean anomaly
93.1231°
Rev number
576

§ Raw data

STARLINK-55731 55750U 23028K   26263.91670139  .00057444  00000+0  42467-2 0  99902 55750  70.0010 112.2190 0002401 267.2510  93.1231 15.02880142  5766

JSON: /api/v1/satellites/55750 · /tle

For live sub-satellite position, see the globe view (requires WebGL).

§ Visibility from observer

Set your observer location to see the next 7 days of passes ≥ 10°. The values pass through the URL so the page stays shareable.

No JS? Fill the form by hand. The geolocation button needs JavaScript.